This is the latest recevied weather packets stored in our database for station/object KB0Y. If no packets are shown the sender has not sent any weather packets the latest 1 day(s).
| Time | Temp. | Humidity | Pressure | Rain* | Wind** | Luminosity | Snow |
|---|---|---|---|---|---|---|---|
| 1778023566 | 27.22° C | 58% | 1018.3 hPa | 0 mm | 1.34 m/s, 190° | 60 W/m² | - |
| 1778023264 | 27.78° C | 57% | 1017.9 hPa | 0 mm | 2.24 m/s, 191° | 74 W/m² | - |
| 1778022960 | 27.78° C | 56% | 1018.3 hPa | 0 mm | 1.34 m/s, 197° | 82 W/m² | - |
| 1778022659 | 28.33° C | 56% | 1017.9 hPa | 0 mm | 2.68 m/s, 190° | 93 W/m² | - |
| 1778022356 | 28.33° C | 54% | 1018.3 hPa | 0 mm | 2.68 m/s, 190° | 162 W/m² | - |
| 1778022052 | 28.33° C | 54% | 1017.9 hPa | 0 mm | 1.79 m/s, 196° | 233 W/m² | - |
| 1778021749 | 28.89° C | 54% | 1018.3 hPa | 0 mm | 2.24 m/s, 190° | 282 W/m² | - |
| 1778021445 | 28.89° C | 53% | 1017.9 hPa | 0 mm | 3.13 m/s, 208° | 329 W/m² | - |
| 1778021142 | 29.44° C | 53% | 1017.9 hPa | 0 mm | 2.24 m/s, 195° | 333 W/m² | - |
| 1778020840 | 29.44° C | 53% | 1018.3 hPa | 0 mm | 2.24 m/s, 190° | 328 W/m² | - |
| 1778020537 | 29.44° C | 52% | 1018.3 hPa | 0 mm | 1.34 m/s, 190° | 373 W/m² | - |
| 1778020233 | 29.44° C | 52% | 1017.9 hPa | 0 mm | 2.24 m/s, 197° | 380 W/m² | - |
| 1778019929 | 29.44° C | 52% | 1018.3 hPa | 0 mm | 3.58 m/s, 189° | 400 W/m² | - |
| 1778019625 | 29.44° C | 52% | 1018.3 hPa | 0 mm | 2.24 m/s, 193° | 423 W/m² | - |
| 1778019323 | 29.44° C | 51% | 1018.3 hPa | 0 mm | 0 m/s | 431 W/m² | - |
| 1778019019 | 29.44° C | 52% | 1018.3 hPa | 0 mm | 1.34 m/s, 189° | 398 W/m² | - |
| 1778018717 | 29.44° C | 54% | 1018.3 hPa | 0 mm | 3.13 m/s, 189° | 373 W/m² | - |
| 1778018415 | 29.44° C | 52% | 1017.9 hPa | 0 mm | 2.68 m/s, 191° | 432 W/m² | - |
| 1778018126 | 29.44° C | 53% | 1017.9 hPa | 0 mm | 1.34 m/s, 324° | 449 W/m² | - |
| 1778017810 | 29.44° C | 53% | 1018.3 hPa | 0 mm | 3.13 m/s, 190° | 160 W/m² | - |
| 1778017508 | 29.44° C | 51% | 1018.3 hPa | 0 mm | 2.24 m/s, 195° | 480 W/m² | - |
| 1778017204 | 29.44° C | 52% | 1018.3 hPa | 0 mm | 3.13 m/s, 200° | 122 W/m² | - |
| 1778016902 | 29.44° C | 53% | 1018.3 hPa | 0 mm | 2.24 m/s, 189° | 492 W/m² | - |
| 1778016598 | 29.44° C | 52% | 1017.9 hPa | 0 mm | 1.34 m/s, 192° | 496 W/m² | - |
| 1778016295 | 29.44° C | 53% | 1017.9 hPa | 0 mm | 4.47 m/s, 189° | 518 W/m² | - |
* Rain latest hour (hover to see other rain measurements)
** Current wind speed in m/s (hover to see current wind gust speed)